#timestamp,LO_Frequency,Hit,StdDev 
1624341615.0,286046997.8,N
1624341616.0,286046997.8,N
1624341635.8,286046998.0,N
1624341655.6,286046993.5,Y
1624341675.5,286046993.4,P
1624341695.3,286046995.1,N
1624341715.1,286046993.7,N
1624341735.9,286046993.5,N
1624341755.7,286046994.3,N
1624341775.5,286046991.8,Y
1624341795.4,286046999.1,P
1624341815.2,286046999.1,N
1624341835.0,286046996.9,N
1624341835.9,286046996.9,N
1624341855.8,286046997.2,N
1624341875.6,286046999.3,N
1624341895.4,286046998.5,N
1624341915.3,286046999.7,N
1624341935.1,286047003.5,N
1624341936.0,286047003.5,N
1624341955.8,286047003.3,N
1624341975.7,286047004.9,N
1624341995.5,286047004.7,N
1624342015.3,286047004.6,N
1624342035.1,286047006.9,N
1624342055.9,286047006.6,N
1624342075.7,286047006.2,N
1624342095.5,286047006.1,N
1624342115.4,286047006.3,N
1624342135.2,286047006.3,N
1624342155.0,286047009.2,N
1624342155.9,286047009.2,N
1624342175.8,286047006.6,N
1624342195.6,286047007.4,N
1624342215.4,286047004.6,N
1624342235.3,286047007.4,N
1624342255.1,286047006.7,N
1624342275.8,286047009.2,N
1624342295.7,286047008.4,N
1624342315.5,286047008.7,N
1624342335.3,286047009.1,N
1624342355.2,286047010.3,N
1624342375.0,286047008.2,N
1624342375.9,286047008.2,N
1624342395.7,286047008.2,N
1624342415.6,286047008.6,N
1624342435.4,286047008.6,Y
1624342455.2,286047000.5,P
1624342475.1,286046998.5,N
1624342476.0,286046998.5,N
1624342495.8,286046999.2,N
1624342515.6,286046995.2,N
1624342535.5,286046995.4,N
1624342555.3,286046997.6,N
1624342575.1,286046995.0,N
1624342595.9,286046997.7,N
1624342615.7,286046997.4,N
1624342635.5,286047001.0,N
1624342655.4,286047001.1,N
1624342675.2,286046999.7,N
1624342695.0,286047002.4,N
1624342695.9,286047002.4,N
1624342715.8,286047001.8,N
1624342735.6,286047001.5,N
1624342755.4,286047003.5,N
1624342775.3,286047004.0,N
1624342795.1,286047003.4,N
1624342796.0,286047003.4,N
1624342815.8,286047005.6,N
1624342835.7,286047005.7,N
1624342855.5,286047005.4,N
1624342875.3,286047003.0,N
1624342895.2,286047005.6,N
1624342915.9,286047002.9,N
1624342935.7,286047005.8,N
1624342955.6,286047005.6,N
1624342975.4,286047006.0,N
1624342995.2,286047003.3,N
1624343015.1,286047005.9,N
1624343016.0,286047005.9,N
1624343035.8,286047006.0,N
1624343055.6,286047003.0,N
1624343075.5,286047005.8,N
1624343095.3,286047005.8,N
1624343115.1,286047006.0,N
1624343135.9,286047005.7,N
1624343155.7,286047005.9,N
1624343175.5,286047005.3,N
1624343195.4,286047005.4,Y
1624343215.2,286046999.8,P
1624343235.0,286047002.5,N
1624343235.9,286047002.5,N
1624343255.8,286047001.5,N
1624343275.6,286047001.9,N
1624343295.4,286047001.7,N
1624343315.3,286047004.3,Y
1624343335.1,286047000.0,P
1624343355.8,286047002.3,N
1624343375.7,286047002.4,N
1624343395.5,286047000.5,N
1624343415.3,286046998.3,N
1624343435.2,286047000.2,N
1624343455.9,286047002.6,N
1624343475.7,286047000.2,N
1624343495.6,286047000.0,N
1624343515.4,286046999.9,N
1624343535.2,286047000.3,N
1624343555.1,286047000.5,N
1624343556.0,286047000.5,N
1624343575.8,286047000.1,N
1624343595.6,286047003.1,N
1624343615.5,286047005.0,Y
1624343635.3,286047006.3,P
1624343655.1,286047006.9,N
1624343675.9,286047008.3,P
1624343695.7,286047010.6,Y
1624343715.5,286047005.6,P
1624343735.4,286047003.0,P
1624343755.2,286047005.9,P
1624343775.0,286047005.6,Y
1624343775.9,286047005.6,P
1624343795.8,286047000.5,N
1624343815.6,286047000.3,N
1624343835.4,286047000.1,N
1624343855.3,286047002.3,N
1624343875.1,286047000.5,N
1624343876.0,286047000.5,N
1624343895.8,286046999.8,N
1624343915.7,286047002.6,N
1624343935.5,286047000.1,N
1624343955.3,286047000.1,N
1624343975.2,286046999.8,N
1624343995.9,286047000.3,N
1624344015.7,286047000.2,N
1624344035.6,286047000.6,N
1624344055.4,286047000.3,N
1624344075.2,286046998.4,N
1624344095.1,286047000.7,N
1624344096.0,286047000.7,N
1624344115.8,286047000.3,N
1624344135.6,286047002.7,N
1624344155.5,286047000.6,N
1624344175.3,286047000.9,N
1624344195.1,286047000.8,N
1624344215.9,286047000.2,N
1624344235.7,286047002.4,N
1624344255.5,286047001.4,N
1624344275.4,286047001.9,N
1624344295.2,286047000.1,N
1624344315.0,286047000.1,N
1624344315.9,286047000.1,N
1624344335.8,286047004.3,Y
1624344355.6,286047002.6,P
1624344375.4,286047002.8,N
1624344395.3,286047002.1,N
1624344415.1,286047004.4,Y
1624344416.0,286047004.4,P
1624344435.8,286046998.2,N
1624344455.7,286046998.1,N
1624344475.5,286046999.8,N
1624344495.3,286047001.4,N
1624344515.2,286047001.6,N
1624344535.9,286047001.6,N
1624344555.7,286047002.0,N
1624344575.6,286047001.5,N
1624344595.4,286047003.8,N
1624344615.2,286047004.3,N
1624344635.1,286047004.3,N
1624344636.0,286047004.3,N
1624344655.8,286047003.8,N
1624344675.6,286047004.3,N
1624344695.5,286047001.5,N
1624344715.3,286047001.8,N
1624344735.1,286047004.4,N
1624344755.9,286047001.6,N
1624344775.7,286047004.4,N
1624344795.5,286047001.4,N
1624344815.4,286047002.6,N
1624344835.2,286046999.8,N
1624344855.0,286047002.5,N
1624344855.9,286047002.5,N
1624344875.8,286047000.2,N
1624344895.6,286047002.1,N
1624344915.4,286047000.4,N
1624344935.3,286047000.3,N
1624344955.1,286047000.5,N
1624344956.0,286047000.5,N
1624344975.8,286047001.9,N
1624344995.7,286047002.1,N
1624345015.5,286047002.7,N
1624345035.3,286047000.1,N
1624345055.1,286047001.4,N
1624345075.9,286047001.9,N
1624345095.7,286047002.8,N
1624345115.5,286047000.3,N
1624345135.4,286047002.8,N
1624345155.2,286047000.1,N
1624345175.0,286047002.3,N
1624345175.9,286047002.3,N
1624345195.8,286047002.2,N
